| time (UTC) | temp C | wind direction | speed KPH | gust KPH | rain 1hr cm | rain 24hr cm | rain mn cm | humidity % | barometer mb |
| 20260902124037 | 5 | 56 | 12.9 | 16.1 | 0.00 | 0.51 | 0.51 | 29 | 1059.9 |
| 20260902124017 | 23 | 203 | 8.0 | 16.1 | 0.00 | 0.00 | 0.00 | 56 | 1020.6 |
| 20260902123017 | 4 | 53 | 14.5 | 16.1 | 0.00 | 0.51 | 0.51 | 29 | 1059.3 |
| 20260902122017 | 3 | 51 | 14.5 | 16.1 | 0.00 | 0.51 | 0.51 | 28 | 1058.8 |
| 20260902121038 | 3 | 48 | 14.5 | 16.1 | 0.00 | 0.51 | 0.51 | 28 | 1058.3 |
| 20260902121017 | 22 | 293 | 4.8 | 11.3 | 0.00 | 0.00 | 0.00 | 58 | 1020.8 |
| 20260902120037 | 23 | 203 | 9.7 | 19.3 | 0.00 | 0.00 | 0.00 | 54 | 1021.1 |
| 20260902115017 | 23 | 248 | 8.0 | 17.7 | 0.00 | 0.00 | 0.00 | 56 | 1021.3 |
| 20260902114017 | 24 | 270 | 6.4 | 16.1 | 0.00 | 0.00 | 0.00 | 54 | 1021.4 |
| 20260902113017 | 2 | 38 | 14.5 | 17.7 | 0.00 | 0.51 | 0.51 | 26 | 1056.3 |
| 20260902112017 | 22 | 225 | 9.7 | 16.1 | 0.00 | 0.00 | 0.00 | 59 | 1021.2 |
| 20260902111017 | 22 | 270 | 6.4 | 16.1 | 0.00 | 0.00 | 0.00 | 62 | 1021.4 |
| 20260902110037 | 22 | 225 | 8.0 | 16.1 | 0.00 | 0.00 | 0.00 | 61 | 1021.5 |
| 20260902110016 | 1 | 31 | 14.5 | 17.7 | 0.00 | 0.51 | 0.51 | 25 | 1054.9 |
| 20260902105017 | 1 | 29 | 14.5 | 17.7 | 0.00 | 0.51 | 0.51 | 25 | 1054.5 |
| 20260902104017 | 0 | 27 | 14.5 | 17.7 | 0.00 | 0.51 | 0.51 | 24 | 1054.0 |
| 20260902103037 | 0 | 25 | 14.5 | 17.7 | 0.00 | 0.51 | 0.51 | 24 | 1053.6 |
| 20260902102057 | 0 | 23 | 14.5 | 17.7 | 0.00 | 0.51 | 0.51 | 24 | 1053.3 |
| 20260902102022 | 22 | 180 | 6.4 | 14.5 | 0.00 | 0.00 | 0.00 | 61 | 1021.8 |
| 20260902101017 | 22 | 203 | 6.4 | 16.1 | 0.00 | 0.00 | 0.00 | 61 | 1021.7 |
| 20260902100017 | 22 | 180 | 8.0 | 12.9 | 0.00 | 0.00 | 0.00 | 62 | 1021.7 |
| 20260902095017 | 0 | 17 | 16.1 | 17.7 | 0.00 | 0.51 | 0.51 | 23 | 1052.2 |
| 20260902094017 | 0 | 16 | 16.1 | 17.7 | 0.00 | 0.51 | 0.51 | 23 | 1051.9 |
| 20260902093017 | 21 | 158 | 4.8 | 11.3 | 0.00 | 0.00 | 0.00 | 66 | 1022.0 |
| 20260902092017 | 0 | 13 | 16.1 | 19.3 | 0.00 | 0.51 | 0.51 | 22 | 1051.3 |
| 20260902091017 | 20 | 225 | 3.2 | 6.4 | 0.00 | 0.00 | 0.00 | 70 | 1022.1 |
| 20260902090017 | 19 | 158 | 1.6 | 3.2 | 0.00 | 0.00 | 0.00 | 72 | 1022.1 |
| 20260902085017 | -1 | 9 | 16.1 | 19.3 | 0.00 | 0.51 | 0.51 | 21 | 1050.5 |
| 20260902084017 | 18 | 135 | 3.2 | 9.7 | 0.00 | 0.00 | 0.00 | 73 | 1022.1 |
| 20260902083017 | -1 | 6 | 16.1 | 19.3 | 0.00 | 0.51 | 0.51 | 21 | 1050.0 |
| 20260902082017 | -1 | 5 | 16.1 | 19.3 | 0.00 | 0.51 | 0.51 | 21 | 1049.8 |
| 20260902081017 | 17 | 113 | 4.8 | 8.0 | 0.00 | 0.00 | 0.00 | 78 | 1021.9 |
| 20260902080017 | -1 | 4 | 16.1 | 19.3 | 0.00 | 0.51 | 0.51 | 21 | 1049.5 |
| 20260902075017 | -1 | 3 | 16.1 | 19.3 | 0.00 | 0.51 | 0.51 | 20 | 1049.4 |
| 20260902074017 | -1 | 2 | 16.1 | 19.3 | 0.00 | 0.51 | 0.51 | 20 | 1049.2 |
| 20260902073017 | 15 | 180 | 3.2 | 6.4 | 0.00 | 0.00 | 0.00 | 89 | 1021.7 |
| 20260902072017 | 0 | 1 | 16.1 | 19.3 | 0.00 | 0.51 | 0.51 | 20 | 1049.0 |
| 20260902071037 | 0 | 1 | 16.1 | 19.3 | 0.00 | 0.51 | 0.51 | 20 | 1048.9 |
| 20260902070036 | 13 | 203 | 1.6 | 3.2 | 0.00 | 0.00 | 0.00 | 93 | 1021.6 |
| 20260902065037 | 13 | 0.0 | 3.2 | 0.00 | 0.00 | 0.00 | 93 | 1021.6 | |
| 20260902064017 | 0 | 0 | 16.1 | 19.3 | 0.00 | 0.51 | 0.51 | 20 | 1048.8 |
| 20260902063037 | 12 | 135 | 1.6 | 3.2 | 0.00 | 0.00 | 0.00 | 94 | 1021.5 |
| 20260902062017 | 11 | 0.0 | 3.2 | 0.00 | 0.00 | 0.00 | 93 | 1021.6 | |
| 20260902061017 | 1 | 0 | 16.1 | 19.3 | 0.00 | 0.51 | 0.51 | 20 | 1048.8 |
| 20260902060017 | 1 | 0 | 16.1 | 19.3 | 0.00 | 0.51 | 0.51 | 20 | 1048.8 |
| 20260902055017 | 1 | 1 | 16.1 | 19.3 | 0.00 | 0.51 | 0.51 | 20 | 1048.9 |
| 20260902054017 | 1 | 1 | 16.1 | 19.3 | 0.00 | 0.51 | 0.51 | 20 | 1049.0 |
| 20260902053017 | 2 | 1 | 16.1 | 19.3 | 0.00 | 0.51 | 0.51 | 20 | 1049.1 |
| 20260902052017 | 2 | 2 | 16.1 | 19.3 | 0.00 | 0.51 | 0.51 | 20 | 1049.2 |
| 20260902051017 | 2 | 3 | 16.1 | 19.3 | 0.00 | 0.51 | 0.51 | 20 | 1049.3 |
| 20260902050017 | 3 | 3 | 16.1 | 19.3 | 0.00 | 0.51 | 0.51 | 21 | 1049.4 |
| 20260902045017 | 3 | 4 | 16.1 | 19.3 | 0.00 | 0.51 | 0.51 | 21 | 1049.6 |
| 20260902044017 | 3 | 5 | 16.1 | 19.3 | 0.00 | 0.51 | 0.51 | 21 | 1049.8 |
| 20260902043017 | 4 | 6 | 16.1 | 19.3 | 0.00 | 0.51 | 0.51 | 21 | 1049.9 |
| 20260902042037 | 5 | 7 | 16.1 | 19.3 | 0.00 | 0.51 | 0.51 | 21 | 1050.2 |
| 20260902041017 | 5 | 8 | 16.1 | 19.3 | 0.00 | 0.51 | 0.51 | 21 | 1050.4 |
| 20260902040017 | 5 | 9 | 16.1 | 19.3 | 0.00 | 0.51 | 0.51 | 22 | 1050.6 |
| 20260902035017 | 6 | 11 | 16.1 | 19.3 | 0.00 | 0.51 | 0.51 | 22 | 1050.9 |
| 20260902034017 | 6 | 12 | 16.1 | 19.3 | 0.00 | 0.51 | 0.51 | 22 | 1051.1 |
| 20260902033037 | 7 | 13 | 16.1 | 19.3 | 0.00 | 0.51 | 0.51 | 22 | 1051.4 |
| 20260902032017 | 7 | 15 | 16.1 | 19.3 | 0.00 | 0.51 | 0.51 | 22 | 1051.7 |
| 20260902031017 | 7 | 16 | 16.1 | 17.7 | 0.00 | 0.51 | 0.51 | 23 | 1052.0 |
| 20260902030017 | 8 | 0.0 | 0.0 | 0.00 | 0.00 | 0.00 | 92 | 1021.2 | |
| 20260902025017 | 8 | 20 | 14.5 | 17.7 | 0.00 | 0.51 | 0.51 | 23 | 1052.7 |
| 20260902024017 | 9 | 22 | 14.5 | 17.7 | 0.00 | 0.51 | 0.51 | 24 | 1053.1 |
| 20260902023037 | 10 | 24 | 14.5 | 17.7 | 0.00 | 0.51 | 0.51 | 24 | 1053.5 |
| 20260902022037 | 10 | 26 | 14.5 | 17.7 | 0.00 | 0.51 | 0.51 | 24 | 1053.9 |
| 20260902021016 | 10 | 0.0 | 1.6 | 0.00 | 0.00 | 0.00 | 92 | 1021.2 | |
| 20260902020017 | 11 | 30 | 14.5 | 17.7 | 0.00 | 0.51 | 0.51 | 25 | 1054.7 |
| 20260902015017 | 11 | 32 | 14.5 | 17.7 | 0.03 | 0.51 | 0.51 | 25 | 1055.1 |
| 20260902014040 | 10 | 0.0 | 0.0 | 0.00 | 0.00 | 0.00 | 91 | 1021.4 | |
| 20260902014037 | 12 | 34 | 14.5 | 17.7 | 0.05 | 0.51 | 0.51 | 26 | 1055.6 |
| 20260902013017 | 12 | 37 | 14.5 | 17.7 | 0.08 | 0.51 | 0.51 | 26 | 1056.0 |
| 20260902012057 | 13 | 39 | 14.5 | 17.7 | 0.10 | 0.51 | 0.51 | 27 | 1056.5 |
| 20260902011017 | 13 | 42 | 14.5 | 17.7 | 0.13 | 0.51 | 0.51 | 27 | 1057.0 |
| 20260902011015 | 10 | 0.0 | 0.0 | 0.00 | 0.00 | 0.00 | 91 | 1021.6 | |
| 20260902010017 | 13 | 44 | 14.5 | 17.7 | 0.15 | 0.51 | 0.51 | 27 | 1057.5 |
| 20260902005016 | 10 | 0.0 | 1.6 | 0.00 | 0.00 | 0.00 | 91 | 1021.8 | |
| 20260902004018 | 10 | 0.0 | 0.0 | 0.00 | 0.00 | 0.00 | 91 | 1021.7 | |
| 20260902003020 | 10 | 0.0 | 1.6 | 0.00 | 0.00 | 0.00 | 91 | 1021.5 | |
| 20260902003017 | 15 | 52 | 14.5 | 16.1 | 0.18 | 0.51 | 0.43 | 29 | 1059.1 |
| 20260902002018 | 10 | 0.0 | 0.0 | 0.00 | 0.00 | 0.00 | 91 | 1021.5 | |
| 20260902001018 | 11 | 0.0 | 0.0 | 0.00 | 0.00 | 0.00 | 90 | 1021.6 | |
| 20260902000017 | 11 | 0.0 | 0.0 | 0.00 | 0.00 | 0.00 | 90 | 1021.5 | |
| 20260901235018 | 11 | 0.0 | 0.0 | 0.00 | 0.00 | 0.00 | 90 | 1021.6 | |
| 20260901234018 | 11 | 0.0 | 0.0 | 0.00 | 0.00 | 0.00 | 90 | 1021.6 | |
| 20260901233017 | 17 | 70 | 12.9 | 16.1 | 0.15 | 0.51 | 0.25 | 32 | 1062.6 |
| 20260901232018 | 11 | 0.0 | 0.0 | 0.00 | 0.00 | 0.00 | 90 | 1021.4 | |
| 20260901231018 | 11 | 0.0 | 0.0 | 0.00 | 0.00 | 0.00 | 89 | 1021.5 | |
| 20260901230017 | 18 | 79 | 12.9 | 14.5 | 0.18 | 0.51 | 0.18 | 33 | 1064.5 |
| 20260901225037 | 18 | 83 | 12.9 | 14.5 | 0.15 | 0.51 | 0.15 | 34 | 1065.1 |
| 20260901225017 | 11 | 0.0 | 0.0 | 0.00 | 0.03 | 0.00 | 89 | 1021.6 | |
| 20260901224019 | 11 | 0.0 | 0.0 | 0.00 | 0.03 | 0.00 | 89 | 1021.5 | |
| 20260901223057 | 11 | 0.0 | 0.0 | 0.00 | 0.03 | 0.00 | 88 | 1021.4 | |
| 20260901222037 | 20 | 93 | 11.3 | 14.5 | 0.08 | 0.51 | 0.08 | 35 | 1067.1 |
| 20260901221017 | 20 | 96 | 11.3 | 14.5 | 0.05 | 0.51 | 0.05 | 36 | 1067.8 |
| 20260901220018 | 12 | 0.0 | 0.0 | 0.00 | 0.03 | 0.03 | 87 | 1021.4 | |
| 20260901215037 | 20 | 103 | 11.3 | 14.5 | 0.00 | 0.51 | 0.51 | 37 | 1069.2 |
| 20260901214037 | 20 | 107 | 11.3 | 12.9 | 0.00 | 0.51 | 0.51 | 38 | 1069.9 |
| 20260901213017 | 20 | 110 | 11.3 | 12.9 | 0.00 | 0.51 | 0.51 | 38 | 1070.6 |
| 20260901212137 | 20 | 114 | 11.3 | 12.9 | 0.00 | 0.51 | 0.51 | 39 | 1071.3 |
| 20260901211017 | 21 | 118 | 11.3 | 12.9 | 0.00 | 0.51 | 0.51 | 40 | 1072.0 |
| 20260901210057 | 21 | 121 | 11.3 | 12.9 | 0.00 | 0.51 | 0.51 | 40 | 1072.8 |
| 20260901205017 | 21 | 125 | 11.3 | 12.9 | 0.00 | 0.51 | 0.51 | 41 | 1073.5 |
| 20260901204017 | 21 | 129 | 9.7 | 12.9 | 0.00 | 0.51 | 0.51 | 41 | 1074.3 |
| 20260901203017 | 13 | 0.0 | 0.0 | 0.00 | 0.05 | 0.03 | 84 | 1021.1 | |
| 20260901202017 | 21 | 136 | 9.7 | 11.3 | 0.00 | 0.51 | 0.51 | 43 | 1075.8 |
| 20260901201017 | 21 | 140 | 9.7 | 11.3 | 0.00 | 0.51 | 0.51 | 43 | 1076.5 |
| 20260901200017 | 21 | 144 | 9.7 | 11.3 | 0.00 | 0.51 | 0.51 | 44 | 1077.3 |
| 20260901195017 | 21 | 148 | 9.7 | 11.3 | 0.00 | 0.51 | 0.51 | 45 | 1078.0 |
| 20260901194039 | 15 | 0.0 | 0.0 | 0.00 | 0.05 | 0.03 | 79 | 1021.0 | |
| 20260901193017 | 20 | 156 | 9.7 | 11.3 | 0.00 | 0.51 | 0.51 | 46 | 1079.6 |
| 20260901192017 | 20 | 159 | 9.7 | 11.3 | 0.00 | 0.51 | 0.51 | 47 | 1080.3 |
| 20260901191017 | 20 | 163 | 8.0 | 11.3 | 0.00 | 0.51 | 0.51 | 47 | 1081.1 |
| 20260901190017 | 20 | 167 | 8.0 | 9.7 | 0.00 | 0.51 | 0.51 | 48 | 1081.9 |
| 20260901185017 | 20 | 171 | 8.0 | 9.7 | 0.00 | 0.51 | 0.51 | 49 | 1082.7 |
| 20260901184017 | 20 | 175 | 8.0 | 9.7 | 0.00 | 0.51 | 0.51 | 49 | 1083.4 |
| 20260901183017 | 19 | 179 | 8.0 | 9.7 | 0.00 | 0.51 | 0.51 | 50 | 1084.2 |
| 20260901182017 | 19 | 183 | 8.0 | 9.7 | 0.00 | 0.51 | 0.51 | 51 | 1085.0 |
| 20260901181017 | 18 | 187 | 8.0 | 9.7 | 0.00 | 0.51 | 0.51 | 51 | 1085.8 |
| 20260901180017 | 18 | 191 | 8.0 | 9.7 | 0.00 | 0.51 | 0.51 | 52 | 1086.5 |
| 20260901175017 | 18 | 195 | 8.0 | 9.7 | 0.00 | 0.51 | 0.51 | 52 | 1087.3 |
| 20260901174018 | 18 | 199 | 6.4 | 8.0 | 0.00 | 0.51 | 0.51 | 53 | 1088.1 |
| 20260901173058 | 17 | 203 | 6.4 | 8.0 | 0.00 | 0.51 | 0.51 | 54 | 1088.9 |
| 20260901173056 | 20 | 270 | 1.6 | 4.8 | 0.00 | 0.05 | 0.03 | 61 | 1020.1 |
| 20260901172016 | 20 | 225 | 3.2 | 6.4 | 0.00 | 0.05 | 0.03 | 59 | 1020.0 |
| 20260901171017 | 17 | 210 | 6.4 | 8.0 | 0.00 | 0.51 | 0.51 | 55 | 1090.4 |
| 20260901170038 | 20 | 203 | 4.8 | 9.7 | 0.00 | 0.05 | 0.03 | 59 | 1020.2 |
| 20260901165038 | 21 | 225 | 6.4 | 12.9 | 0.00 | 0.05 | 0.03 | 57 | 1020.2 |
| 20260901164018 | 21 | 225 | 6.4 | 14.5 | 0.00 | 0.05 | 0.03 | 57 | 1020.4 |
| 20260901163018 | 21 | 248 | 6.4 | 14.5 | 0.00 | 0.05 | 0.03 | 55 | 1020.4 |
| 20260901162018 | 21 | 270 | 9.7 | 19.3 | 0.00 | 0.05 | 0.03 | 55 | 1020.4 |
| 20260901161017 | 22 | 225 | 9.7 | 16.1 | 0.00 | 0.05 | 0.03 | 53 | 1020.6 |
| 20260901160018 | 22 | 248 | 6.4 | 12.9 | 0.00 | 0.05 | 0.03 | 54 | 1020.6 |
| 20260901155017 | 22 | 293 | 3.2 | 9.7 | 0.00 | 0.05 | 0.03 | 57 | 1020.5 |
| 20260901154038 | 21 | 293 | 1.6 | 9.7 | 0.00 | 0.05 | 0.03 | 59 | 1020.6 |
| 20260901153018 | 21 | 225 | 3.2 | 6.4 | 0.00 | 0.05 | 0.03 | 58 | 1020.6 |
| 20260901152018 | 21 | 293 | 3.2 | 12.9 | 0.00 | 0.05 | 0.03 | 58 | 1020.6 |
| 20260901151057 | 21 | 293 | 4.8 | 12.9 | 0.00 | 0.05 | 0.03 | 58 | 1020.6 |
| 20260901150017 | 22 | 338 | 4.8 | 14.5 | 0.00 | 0.05 | 0.03 | 56 | 1020.6 |
| 20260901145017 | 22 | 225 | 4.8 | 9.7 | 0.00 | 0.05 | 0.03 | 54 | 1020.8 |
| 20260901144017 | 22 | 270 | 6.4 | 12.9 | 0.00 | 0.05 | 0.03 | 55 | 1020.8 |
| 20260901143017 | 22 | 270 | 6.4 | 12.9 | 0.00 | 0.05 | 0.03 | 55 | 1020.9 |
| 20260901142017 | 22 | 293 | 8.0 | 16.1 | 0.00 | 0.05 | 0.03 | 57 | 1020.7 |
| 20260901141019 | 22 | 225 | 4.8 | 11.3 | 0.00 | 0.05 | 0.03 | 55 | 1020.8 |
| 20260901141017 | 8 | 276 | 3.2 | 4.8 | 0.00 | 0.51 | 0.51 | 66 | 1103.4 |
| 20260901140017 | 23 | 293 | 6.4 | 14.5 | 0.00 | 0.05 | 0.03 | 55 | 1021.0 |
| 20260901135017 | 8 | 282 | 3.2 | 4.8 | 0.00 | 0.51 | 0.51 | 67 | 1104.7 |
| 20260901134017 | 21 | 315 | 1.6 | 8.0 | 0.00 | 0.05 | 0.03 | 61 | 1020.9 |
| 20260901133017 | 21 | 315 | 1.6 | 8.0 | 0.00 | 0.05 | 0.03 | 60 | 1020.9 |
| 20260901132022 | 21 | 338 | 3.2 | 14.5 | 0.00 | 0.05 | 0.03 | 59 | 1020.9 |
| 20260901132017 | 6 | 292 | 3.2 | 3.2 | 0.00 | 0.51 | 0.51 | 69 | 1106.5 |
| 20260901131037 | 6 | 295 | 3.2 | 3.2 | 0.00 | 0.51 | 0.51 | 69 | 1107.1 |
| 20260901130017 | 6 | 298 | 3.2 | 3.2 | 0.00 | 0.51 | 0.51 | 70 | 1107.7 |
| 20260901125017 | 22 | 293 | 6.4 | 16.1 | 0.00 | 0.05 | 0.03 | 59 | 1021.4 |